Regional Weather Roundup
Issued by NWS

Home | Current Version | Previous Version | Graphics & Text | Print | Product List | Glossary On
Versions: 1 2 3 4 5 6 7 8 9 10 11 12 13 14 15 16 17 18 19 20 21 22 23 24 25 26 27 28 29 30 31 32 33 34 35 36 37 38 39 40 41 42 43 44 45 46 47 48 49 50
000
ASUS43 KBIS 280820
RWRND

NORTH DAKOTA REGIONAL WEATHER ROUNDUP
NATIONAL WEATHER SERVICE BISMARCK ND
300 AM CDT THU AUG 28 2014

NOTE: "FAIR" INDICATES FEW OR NO CLOUDS BELOW 12,000 FEET WITH NO
SIGNIFICANT WEATHER AND/OR OBSTRUCTIONS TO VISIBILITY.


NDZ001>003-009>011-017-280900-
NORTHWEST NORTH DAKOTA

CITY           SKY/WX    TMP DP  RH WIND       PRES   REMARKS
WILLISTON      CLEAR     59  54  83 CALM      29.91F
MINOT          CLEAR     63  60  90 S8        29.92F
MINOT AFB      CLEAR     62  62 100 S6        29.92F
$$

NDZ018>021-031>035-040>046-280900-
SOUTHWEST NORTH DAKOTA

CITY           SKY/WX    TMP DP  RH WIND       PRES   REMARKS
BISMARCK       MOCLDY    62  60  93 SE8       29.98F
DICKINSON      MOCLDY    58  57  97 S9        29.96F
GARRISON         N/A     63  62  97 S8        29.96F
HETTINGER ARPT FOG       52  51  97 CALM      30.01F VSB 1/4
$$

NDZ004>008-012>016-024-026-027-054-280900-
NORTHEAST NORTH DAKOTA

CITY           SKY/WX    TMP DP  RH WIND       PRES   REMARKS
GRAND FORKS    PTCLDY    60  57  89 S6        30.01F
GRND FRKS AFB  PTCLDY    60  59  99 S6        30.01F
DEVILS LAKE    CLEAR     63  55  77 S12       29.97F
$$

NDZ022-023-025-028>030-036>039-047>053-280900-
SOUTHEAST NORTH DAKOTA

CITY           SKY/WX    TMP DP  RH WIND       PRES   REMARKS
FARGO          CLOUDY    66  60  81 SE10      30.02F
JAMESTOWN      CLOUDY    65  60  84 SE8       29.99F
$$



USA.gov is the U.S. government's official web portal to all federal, state and local government web resources and services.